Weather History for CWYW - August, 2013

Change the Weather History Date:

Tuesday, August 20, 2013

  Actual Average Record
Temperature  
Mean Temperature 77 °F -  
Max Temperature 92 °F - - ()
Min Temperature 62 °F - - ()
Cooling Degree Days 12    
Growing Degree Days 27 (Base 50)    
Moisture  
Dew Point 63 °F    
Average Humidity 62    
Maximum Humidity 85    
Minimum Humidity 32    
Precipitation  
Precipitation 0.00 in - - ()
Sea Level Pressure  
Sea Level Pressure 29.73 in    
Wind  
Wind Speed 4 mph ()    
Max Wind Speed 12 mph    
Max Gust Speed 20 mph    
T = Trace of Precipitation, MM = Missing Value Source: Averaged Metar Reports

Daily Weather History Graph

Daily Weather History Graph

Search for Another Location

Airport or City:

Trip Planner

Search our weather history database for the weather conditions in past years. The results will help you decide how hot, cold, wet, or windy it might be!

Date:

Astronomy

Aug. 20, 2013 Rise Set
Actual Time 6:52 AM EDT 9:04 PM EDT
Civil Twilight 6:17 AM EDT 9:39 PM EDT
Nautical Twilight 5:32 AM EDT 10:23 PM EDT
Astronomical Twilight 4:41 AM EDT 11:14 PM EDT
Moon 8:28 PM EDT (8/20) 6:25 AM EDT (8/20)
Length of Visible Light 15h 22m
Length of Day
14h 11m
Full, 100% of the Moon is Illuminated
Aug 20
Full
Aug 20
Full
Aug 28
Last Quarter
Sep 5
New
Sep 12
First Quarter

Hourly Weather History & Observations

Time (EDT) Temp. Heat Index Dew Point Humidity Pressure Visibility Wind Dir Wind Speed Gust Speed Precip Events Conditions
12:00 AM 67.1 °F - 61.9 °F 83% 29.77 in - South 3.5 mph - N/A   Unknown
1:00 AM 69.4 °F - 62.2 °F 78% 29.76 in - SSW 4.6 mph - N/A   Unknown
2:00 AM 69 °F - 61 °F 70% 29.75 in - SSW 3.5 mph - -  
2:00 AM 69.3 °F - 61.3 °F 76% 29.75 in - SW 3.5 mph - N/A   Unknown
3:00 AM 69.4 °F - 60.6 °F 73% 29.75 in - SSW 3.5 mph - N/A   Unknown
4:00 AM 68.2 °F - 60.6 °F 77% 29.75 in - SSW 3.5 mph - N/A   Unknown
5:00 AM 68 °F - 61 °F 71% 29.74 in - SSW 3.5 mph - -  
5:00 AM 67.8 °F - 60.6 °F 78% 29.75 in - SSW 3.5 mph - N/A   Unknown
6:00 AM 63.3 °F - 58.8 °F 85% 29.74 in - South 2.3 mph - N/A   Unknown
7:00 AM 68.0 °F - 62.6 °F 83% 29.74 in - SSW 2.3 mph - N/A   Unknown
8:00 AM 69 °F - 63 °F 76% 29.75 in - SSW 4.6 mph - -  
8:00 AM 68.5 °F - 63.3 °F 83% 29.75 in - SSW 3.5 mph - N/A   Unknown
9:00 AM 73.9 °F - 65.5 °F 75% 29.75 in - WSW 6.9 mph - N/A   Unknown
10:00 AM 77.4 °F - 65.7 °F 67% 29.77 in - SW 8.1 mph - N/A   Unknown
11:00 AM 80 °F - 67 °F 57% 29.75 in - SW 5.8 mph - -  
11:00 AM 79.7 °F - 67.3 °F 66% 29.75 in - SW 4.6 mph - N/A   Unknown
12:00 PM 82.0 °F 84.9 °F 67.8 °F 62% 29.75 in - South 5.8 mph - N/A   Unknown
1:00 PM 86.0 °F 88.2 °F 66.2 °F 51% 29.74 in - South 8.1 mph - N/A   Unknown
2:00 PM 87 °F - 65 °F 38% 29.72 in - SW 8.1 mph - -  
2:00 PM 87.4 °F 88.8 °F 64.6 °F 46% 29.72 in - SSW 9.2 mph 17.3 mph N/A   Unknown
3:00 PM 89.6 °F 90.8 °F 64.0 °F 42% 29.70 in - South 9.2 mph 19.6 mph N/A   Unknown
4:00 PM 90.0 °F 91.0 °F 63.5 °F 41% 29.70 in - SW 8.1 mph 17.3 mph N/A   Unknown
5:00 PM 90 °F - 64 °F 32% 29.70 in - West 9.2 mph - -  
5:00 PM 89.8 °F 91.0 °F 63.9 °F 42% 29.70 in - West 11.5 mph - N/A   Unknown
6:00 PM 88.9 °F 90.3 °F 64.4 °F 44% 29.70 in - WNW 3.5 mph - N/A   Unknown
7:00 PM 88.0 °F 89.3 °F 64.4 °F 45% 29.69 in - West 4.6 mph - N/A   Unknown
8:00 PM 85 °F - 63 °F 37% 29.70 in - West 3.5 mph - -  
8:00 PM 85.5 °F 86.1 °F 62.8 °F 46% 29.70 in - West 3.5 mph - N/A   Unknown
9:00 PM 78.6 °F - 63.7 °F 60% 29.70 in - West 3.5 mph - N/A   Unknown
10:00 PM 73.8 °F - 63.1 °F 69% 29.71 in - SSW 2.3 mph - N/A   Unknown
11:00 PM 72.5 °F - 63.5 °F 73% 29.70 in - South 3.5 mph - N/A   Unknown